| time (UTC) | temp C | wind direction | speed KPH | gust KPH | rain 1hr cm | rain 24hr cm | rain mn cm | humidity % | barometer mb |
| 20260502204112 | 16 | 118 | 4.8 | 14.5 | 0.00 | 0.00 | 0.00 | 50 | 1014.1 |
| 20260502203111 | 16 | 231 | 3.2 | 16.1 | 0.00 | 0.00 | 0.00 | 51 | 1014.2 |
| 20260502202111 | 16 | 360 | 1.6 | 6.4 | 0.00 | 0.00 | 0.00 | 52 | 1014.2 |
| 20260502201111 | 16 | 360 | 1.6 | 6.4 | 0.00 | 0.00 | 0.00 | 53 | 1014.2 |
| 20260502200111 | 16 | 360 | 0.0 | 3.2 | 0.00 | 0.00 | 0.00 | 53 | 1014.2 |
| 20260502195111 | 16 | 360 | 1.6 | 6.4 | 0.00 | 0.00 | 0.00 | 52 | 1014.3 |
| 20260502194111 | 16 | 360 | 0.0 | 4.8 | 0.00 | 0.00 | 0.00 | 51 | 1014.2 |
| 20260502193111 | 17 | 360 | 3.2 | 8.0 | 0.00 | 0.00 | 0.00 | 51 | 1014.1 |
| 20260502192111 | 17 | 360 | 0.0 | 0.0 | 0.00 | 0.00 | 0.00 | 50 | 1014.0 |
| 20260502191111 | 18 | 360 | 0.0 | 0.0 | 0.00 | 0.00 | 0.00 | 48 | 1014.0 |
| 20260502190111 | 18 | 360 | 0.0 | 0.0 | 0.00 | 0.00 | 0.00 | 46 | 1013.8 |
| 20260502185111 | 19 | 360 | 0.0 | 0.0 | 0.00 | 0.00 | 0.00 | 45 | 1013.7 |
| 20260502184111 | 20 | 360 | 0.0 | 0.0 | 0.00 | 0.00 | 0.00 | 43 | 1013.7 |
| 20260502183116 | 20 | 360 | 0.0 | 0.0 | 0.00 | 0.00 | 0.00 | 42 | 1013.6 |
| 20260502182116 | 21 | 360 | 0.0 | 0.0 | 0.00 | 0.00 | 0.00 | 40 | 1013.5 |
| 20260502181115 | 22 | 360 | 0.0 | 0.0 | 0.00 | 0.00 | 0.00 | 37 | 1013.4 |
| 20260502180116 | 22 | 360 | 0.0 | 0.0 | 0.00 | 0.00 | 0.00 | 35 | 1013.4 |
| 20260502170115 | 25 | 13 | 0.0 | 6.4 | 0.00 | 0.00 | 0.00 | 28 | 1013.6 |
| 20260502164115 | 25 | 336 | 0.0 | 4.8 | 0.00 | 0.00 | 0.00 | 27 | 1013.7 |
| 20260502163115 | 25 | 348 | 3.2 | 11.3 | 0.00 | 0.00 | 0.00 | 27 | 1013.8 |
| 20260502162115 | 25 | 29 | 4.8 | 16.1 | 0.00 | 0.00 | 0.00 | 29 | 1014.0 |
| 20260502161115 | 25 | 28 | 6.4 | 20.9 | 0.00 | 0.00 | 0.00 | 28 | 1014.1 |
| 20260502160115 | 25 | 5 | 8.0 | 19.3 | 0.00 | 0.00 | 0.00 | 27 | 1014.2 |
| 20260502152115 | 25 | 48 | 8.0 | 17.7 | 0.00 | 0.00 | 0.00 | 30 | 1014.5 |
| 20260502151115 | 25 | 23 | 8.0 | 20.9 | 0.00 | 0.00 | 0.00 | 30 | 1014.7 |
| 20260502150115 | 25 | 45 | 8.0 | 19.3 | 0.00 | 0.00 | 0.00 | 30 | 1014.7 |
| 20260502140114 | 25 | 36 | 6.4 | 17.7 | 0.00 | 0.00 | 0.00 | 34 | 1015.5 |
| 20260502130113 | 24 | 48 | 0.0 | 0.0 | 0.00 | 0.00 | 0.00 | 36 | 1016.3 |
| 20260502123113 | 24 | 28 | 9.7 | 20.9 | 0.00 | 0.00 | 0.00 | 39 | 1016.7 |
| 20260502122113 | 24 | 36 | 4.8 | 16.1 | 0.00 | 0.00 | 0.00 | 42 | 1016.8 |
| 20260502121113 | 23 | 48 | 6.4 | 17.7 | 0.00 | 0.00 | 0.00 | 43 | 1017.0 |
| 20260502120113 | 23 | 25 | 6.4 | 17.7 | 0.00 | 0.00 | 0.00 | 43 | 1017.3 |
| 20260502115113 | 23 | 24 | 6.4 | 16.1 | 0.00 | 0.00 | 0.00 | 44 | 1017.4 |
| 20260502114113 | 23 | 36 | 4.8 | 11.3 | 0.00 | 0.00 | 0.00 | 46 | 1017.6 |
| 20260502113113 | 22 | 331 | 3.2 | 9.7 | 0.00 | 0.00 | 0.00 | 44 | 1017.7 |
| 20260502112113 | 22 | 331 | 3.2 | 9.7 | 0.00 | 0.00 | 0.00 | 42 | 1017.9 |
| 20260502111113 | 22 | 325 | 6.4 | 12.9 | 0.00 | 0.00 | 0.00 | 43 | 1018.0 |
| 20260502110113 | 22 | 355 | 3.2 | 9.7 | 0.00 | 0.00 | 0.00 | 44 | 1018.2 |
| 20260502105113 | 22 | 331 | 6.4 | 12.9 | 0.00 | 0.00 | 0.00 | 43 | 1018.3 |
| 20260502104113 | 22 | 28 | 4.8 | 12.9 | 0.00 | 0.00 | 0.00 | 44 | 1018.4 |
| 20260502103112 | 21 | 338 | 3.2 | 9.7 | 0.00 | 0.00 | 0.00 | 45 | 1018.6 |
| 20260502102113 | 21 | 327 | 6.4 | 16.1 | 0.00 | 0.00 | 0.00 | 46 | 1018.7 |
| 20260502101112 | 21 | 9 | 3.2 | 12.9 | 0.00 | 0.00 | 0.00 | 50 | 1018.9 |
| 20260502100112 | 21 | 5 | 0.0 | 11.3 | 0.00 | 0.00 | 0.00 | 49 | 1019.0 |
| 20260502091112 | 20 | 120 | 4.8 | 12.9 | 0.00 | 0.00 | 0.00 | 51 | 1019.5 |
| 20260502090112 | 20 | 148 | 4.8 | 11.3 | 0.00 | 0.00 | 0.00 | 51 | 1019.6 |
| 20260502071111 | 12 | 30 | 1.6 | 1.6 | 0.00 | 0.00 | 0.00 | 77 | 1020.4 |
| 20260502070111 | 11 | 30 | 1.6 | 1.6 | 0.00 | 0.00 | 0.00 | 79 | 1020.5 |
| 20260502065111 | 11 | 30 | 1.6 | 1.6 | 0.00 | 0.00 | 0.00 | 79 | 1020.7 |
| 20260502064111 | 10 | 30 | 1.6 | 1.6 | 0.00 | 0.00 | 0.00 | 79 | 1020.7 |
| 20260502063111 | 10 | 30 | 1.6 | 1.6 | 0.00 | 0.00 | 0.00 | 79 | 1020.7 |
| 20260502062111 | 10 | 30 | 1.6 | 1.6 | 0.00 | 0.00 | 0.00 | 79 | 1020.8 |
| 20260502061111 | 10 | 30 | 1.6 | 1.6 | 0.00 | 0.00 | 0.00 | 79 | 1020.8 |
| 20260502060111 | 9 | 30 | 1.6 | 1.6 | 0.00 | 0.00 | 0.00 | 78 | 1020.8 |
| 20260502055111 | 9 | 30 | 1.6 | 1.6 | 0.00 | 0.00 | 0.00 | 78 | 1020.8 |
| 20260502054111 | 9 | 30 | 1.6 | 1.6 | 0.00 | 0.00 | 0.00 | 77 | 1020.8 |
| 20260502053110 | 9 | 30 | 1.6 | 1.6 | 0.00 | 0.00 | 0.00 | 77 | 1020.8 |
| 20260502052110 | 9 | 30 | 1.6 | 1.6 | 0.00 | 0.00 | 0.00 | 77 | 1020.8 |
| 20260502051110 | 9 | 30 | 1.6 | 1.6 | 0.00 | 0.00 | 0.00 | 77 | 1020.7 |
| 20260502050111 | 9 | 30 | 1.6 | 1.6 | 0.00 | 0.00 | 0.00 | 76 | 1020.7 |
| 20260502045110 | 9 | 30 | 1.6 | 1.6 | 0.00 | 0.00 | 0.00 | 76 | 1020.6 |
| 20260502044110 | 9 | 30 | 1.6 | 1.6 | 0.00 | 0.00 | 0.00 | 75 | 1020.6 |
| 20260502043110 | 9 | 30 | 1.6 | 1.6 | 0.00 | 0.00 | 0.00 | 75 | 1020.6 |
| 20260502042110 | 9 | 30 | 1.6 | 1.6 | 0.00 | 0.00 | 0.00 | 75 | 1020.6 |
| 20260502041110 | 9 | 30 | 1.6 | 1.6 | 0.00 | 0.00 | 0.00 | 74 | 1020.6 |
| 20260502040110 | 10 | 30 | 1.6 | 1.6 | 0.00 | 0.00 | 0.00 | 74 | 1020.6 |
| 20260502035110 | 10 | 30 | 1.6 | 1.6 | 0.00 | 0.00 | 0.00 | 74 | 1020.5 |
| 20260502034110 | 10 | 30 | 1.6 | 1.6 | 0.00 | 0.00 | 0.00 | 73 | 1020.5 |
| 20260502033110 | 10 | 30 | 1.6 | 1.6 | 0.00 | 0.00 | 0.00 | 73 | 1020.5 |
| 20260502032110 | 10 | 30 | 1.6 | 1.6 | 0.00 | 0.00 | 0.00 | 73 | 1020.4 |
| 20260502031109 | 10 | 30 | 1.6 | 1.6 | 0.00 | 0.00 | 0.00 | 72 | 1020.5 |
| 20260502030110 | 10 | 30 | 1.6 | 1.6 | 0.00 | 0.00 | 0.00 | 72 | 1020.6 |
| 20260502025109 | 10 | 30 | 1.6 | 1.6 | 0.00 | 0.00 | 0.00 | 71 | 1020.7 |
| 20260502024109 | 10 | 30 | 1.6 | 1.6 | 0.00 | 0.00 | 0.00 | 71 | 1020.7 |
| 20260502023109 | 10 | 30 | 1.6 | 1.6 | 0.00 | 0.00 | 0.00 | 70 | 1020.6 |
| 20260502022114 | 10 | 30 | 1.6 | 1.6 | 0.00 | 0.00 | 0.00 | 70 | 1020.6 |
| 20260502021114 | 10 | 30 | 1.6 | 1.6 | 0.00 | 0.00 | 0.00 | 70 | 1020.5 |
| 20260502020114 | 10 | 30 | 1.6 | 1.6 | 0.00 | 0.00 | 0.00 | 70 | 1020.6 |
| 20260502015115 | 11 | 30 | 1.6 | 1.6 | 0.00 | 0.00 | 0.00 | 69 | 1020.6 |
| 20260502014114 | 11 | 30 | 1.6 | 1.6 | 0.00 | 0.00 | 0.00 | 69 | 1020.6 |
| 20260502013114 | 11 | 30 | 1.6 | 1.6 | 0.00 | 0.00 | 0.00 | 68 | 1020.6 |
| 20260502012114 | 11 | 30 | 1.6 | 1.6 | 0.00 | 0.00 | 0.00 | 68 | 1020.8 |
| 20260502011114 | 11 | 30 | 1.6 | 1.6 | 0.00 | 0.00 | 0.00 | 68 | 1020.7 |
| 20260502010114 | 11 | 30 | 1.6 | 1.6 | 0.00 | 0.00 | 0.00 | 67 | 1020.7 |
| 20260502005114 | 11 | 30 | 1.6 | 1.6 | 0.00 | 0.00 | 0.00 | 67 | 1020.7 |
| 20260502004114 | 11 | 30 | 1.6 | 1.6 | 0.00 | 0.00 | 0.00 | 66 | 1020.8 |
| 20260502003114 | 11 | 30 | 1.6 | 1.6 | 0.00 | 0.00 | 0.00 | 65 | 1020.9 |
| 20260502002114 | 12 | 30 | 1.6 | 1.6 | 0.00 | 0.00 | 0.00 | 65 | 1020.9 |
| 20260502001113 | 12 | 30 | 1.6 | 1.6 | 0.00 | 0.00 | 0.00 | 65 | 1020.9 |
| 20260502000113 | 12 | 30 | 1.6 | 1.6 | 0.00 | 0.00 | 0.00 | 64 | 1020.9 |
| 20260501235114 | 12 | 30 | 1.6 | 1.6 | 0.00 | 0.00 | 0.00 | 64 | 1021.0 |
| 20260501234113 | 12 | 30 | 1.6 | 1.6 | 0.00 | 0.00 | 0.00 | 63 | 1020.9 |
| 20260501233113 | 12 | 30 | 1.6 | 1.6 | 0.00 | 0.00 | 0.00 | 62 | 1021.1 |
| 20260501232113 | 12 | 30 | 1.6 | 1.6 | 0.00 | 0.00 | 0.00 | 62 | 1021.0 |
| 20260501231113 | 12 | 30 | 1.6 | 1.6 | 0.00 | 0.00 | 0.00 | 61 | 1021.0 |
| 20260501230113 | 13 | 30 | 1.6 | 1.6 | 0.00 | 0.00 | 0.00 | 60 | 1021.1 |
| 20260501225114 | 13 | 30 | 1.6 | 1.6 | 0.00 | 0.00 | 0.00 | 59 | 1021.0 |
| 20260501224114 | 13 | 30 | 1.6 | 1.6 | 0.00 | 0.00 | 0.00 | 57 | 1021.0 |
| 20260501223113 | 14 | 30 | 1.6 | 1.6 | 0.00 | 0.00 | 0.00 | 57 | 1021.1 |
| 20260501222113 | 14 | 30 | 1.6 | 1.6 | 0.00 | 0.00 | 0.00 | 56 | 1021.1 |
| 20260501221113 | 15 | 30 | 1.6 | 1.6 | 0.00 | 0.00 | 0.00 | 55 | 1021.1 |
| 20260501220113 | 15 | 30 | 1.6 | 1.6 | 0.00 | 0.00 | 0.00 | 55 | 1021.0 |
| 20260501215113 | 15 | 30 | 1.6 | 1.6 | 0.00 | 0.00 | 0.00 | 54 | 1021.0 |
| 20260501214113 | 15 | 30 | 1.6 | 1.6 | 0.00 | 0.00 | 0.00 | 54 | 1021.0 |
| 20260501213113 | 15 | 30 | 1.6 | 1.6 | 0.00 | 0.00 | 0.00 | 53 | 1020.9 |
| 20260501212112 | 15 | 30 | 1.6 | 1.6 | 0.00 | 0.00 | 0.00 | 53 | 1021.0 |
| 20260501211112 | 16 | 30 | 1.6 | 1.6 | 0.00 | 0.00 | 0.00 | 52 | 1020.9 |
| 20260501210113 | 16 | 30 | 1.6 | 1.6 | 0.00 | 0.00 | 0.00 | 52 | 1020.7 |
| 20260501205112 | 16 | 30 | 1.6 | 1.6 | 0.00 | 0.00 | 0.00 | 51 | 1020.8 |